Flag for U.S.A. Weather past 2 weeks in Myrtle Beach, South Carolina, U.S.A.

Now
43 °F

Low clouds.


Feels Like: 43 °F
Forecast: 45 / 61 °F
Wind: No wind

Location: Myrtle Beach Air Force Base

Current Time: Mar 2, 2015 at 12:32:04 AM

Latest Report: Mar 1, 2015 at 11:55 PM


Visibility: 1 mi

Pressure: 30.36 "Hg

Humidity: 87%

Dew point: 39 °F

Location of Myrtle BeachLocation

Historic Weather in Myrtle Beach — Graph

°F

Myrtle Beach temperature yesterday

Maximum temperature yesterday: 48 °F (at 10:45 AM)
Minimum temperature yesterday: 39 °F (at 2:15 AM)
Average temperature yesterday: 42 °F

Past Weeks' High & Low Weather Summary

 TemperatureHumidityPressure
High63 °F (Feb 17, 1:55 AM)94% (Feb 21, 6:46 PM)30.70 "Hg (Feb 21, 6:46 PM)
Low18 °F (Feb 20, 4:55 AM)16% (Feb 15, 2:45 PM)29.53 "Hg (Feb 26, 3:35 AM)
Average39 °F68%30.19 "Hg
* Reported Feb 14 11:15 PM — Mar 1 11:35 PM, Myrtle Beach, Weather by CustomWeather, © 2015

Note: Actual official high and low records may vary slightly from our data, if they occured in-between our weather recording intervals... More about our weather records

Advertising

Myrtle Beach weather history for previous 24 hours

 ConditionsComfort  
Time TempWeatherWind HumidityBarometerVisibility
11:35 PM
Sun, Mar 1
43 °FLow clouds.No wind87%30.37 "Hg1 mi
11:15 PM43 °FLow clouds.No wind87%30.37 "Hg1 mi
10:55 PM43 °FLow clouds.No wind87%30.38 "Hg1 mi
9:50 PM43 °FFog.7 mph87%30.39 "Hg2 mi
8:45 PM43 °FLow clouds.9 mph87%30.41 "Hg10 mi
7:45 PM43 °FLight rain. Fog.9 mph87%30.42 "Hg3 mi
6:45 PM45 °FLight rain. Fog.12 mph81%30.40 "Hg2 mi
5:45 PM45 °FFog.8 mph87%30.39 "Hg3 mi
5:04 PM46 °FFog.9 mph87%30.40 "Hg3 mi
3:45 PM46 °FFog.9 mph87%30.40 "Hg3 mi
2:45 PM45 °FFog.10 mph87%30.43 "Hg2 mi
1:45 PM45 °FFog.10 mph81%30.45 "Hg3 mi
12:45 PM46 °FOvercast.12 mph76%30.48 "Hg8 mi
11:45 AM46 °FLight rain. Fog.8 mph76%30.51 "Hg4 mi
10:45 AM48 °FOvercast.7 mph71%30.49 "Hg10 mi
9:45 AM46 °FMostly cloudy.9 mph71%30.52 "Hg10 mi
8:45 AM43 °FMostly cloudy.7 mph76%30.53 "Hg10 mi
7:45 AM39 °FOvercast.10 mph81%30.53 "Hg10 mi
6:45 AM39 °FOvercast.9 mph75%30.54 "Hg10 mi
5:58 AM39 °FMostly cloudy.9 mph65%30.53 "Hg10 mi
5:35 AM39 °FOvercast.10 mph70%30.54 "Hg10 mi
5:15 AM41 °FOvercast.10 mph61%30.54 "Hg10 mi
4:55 AM39 °FMostly cloudy.7 mph65%30.54 "Hg10 mi
4:35 AM39 °FMostly cloudy.9 mph65%30.55 "Hg10 mi
4:15 AM39 °FMostly cloudy.8 mph61%30.54 "Hg10 mi
3:55 AM39 °FOvercast.9 mph61%30.54 "Hg10 mi
3:35 AM39 °FOvercast.9 mph61%30.55 "Hg10 mi
3:15 AM39 °FOvercast.12 mph61%30.55 "Hg10 mi
2:55 AM39 °FOvercast.9 mph65%30.57 "Hg10 mi
2:35 AM39 °FOvercast.9 mph61%30.58 "Hg10 mi
2:15 AM39 °FOvercast.13 mph56%30.59 "Hg10 mi
1:55 AM41 °FOvercast.7 mph57%30.60 "Hg10 mi
1:35 AM41 °FOvercast.12 mph57%30.60 "Hg10 mi
1:15 AM41 °FOvercast.9 mph61%30.60 "Hg10 mi
12:55 AM43 °FOvercast.6 mph49%30.61 "Hg10 mi
12:15 AM43 °FOvercast.10 mph49%30.62 "Hg10 mi
Weather by CustomWeather, © 2015

See weather overviewHow to use our weather pages